Temp
62 62 62 62 61 61 61 62 62 62 62 63 63 63 63 62 63 76 80 86 84 74 78 91 92 91 92 88 87 84 81 76 75 73 79 81 79 80 84 81 82 84 82 87 86
61 61 61 61 61 61 61 61 61 62 62 62 63 62 62 62 71 75 81 73 74 76 91 91 88 90 89 86 85 85 78 77 82 83 81 81 82 81 80 79 79 81 83 85 84
61 61 61 61 61 61 61 61 61 62 62 62 62 62 62 64 77 86 77 74 74 80 91 90 89 88 85 84 83 80 80 81 83 85 85 81 81 84 81 76 82 81 82 84 83
60 61 61 61 61 61 60 61 61 62 62 62 62 62 62 71 73 89 76 74 74 87 91 88 86 84 83 82 83 79 83 82 85 82 82 80 84 80 83 84 88 86 87 85 82
60 60 60 60 60 60 60 60 61 61 61 61 61 62 73 76 80 85 76 77 86 89 88 86 84 83 83 82 80 78 81 82 84 81 81 84 81 82 81 87 86 88 84 84 84
59 59 60 60 60 60 60 59 59 59 60 61 62 63 75 75 90 88 85 85 90 90 87 88 87 87 83 80 79 82 81 82 82 81 81 81 79 80 85 87 83 82 82 83 83
58 59 59 59 59 59 59 59 58 59 60 62 63 71 73 83 90 88 88 90 90 90 88 89 90 87 84 81 83 82 81 81 80 79 79 84 75 76 87 84 82 81 82 81 82
58 58 58 59 59 59 59 59 59 60 61 63 65 72 75 88 88 87 88 90 89 90 89 90 90 87 85 84 82 80 78 77 80 80 78 82 76 84 83 81 80 81 80 79 79
58 57 58 58 59 59 59 58 60 61 63 65 72 75 81 84 88 91 91 90 89 88 89 90 88 83 85 81 80 78 73 72 76 80 80 80 77 79 80 81 80 78 78 79 78
58 57 57 58 58 58 58 58 61 63 69 72 76 74 86 86 90 92 91 90 90 87 86 85 84 83 82 82 72 72 73 74 73 78 79 76 74 77 75 78 76 76 77 78 78
58 57 57 57 58 58 65 76 78 75 76 80 80 80 83 90 90 92 93 90 90 87 80 79 82 76 76 76 76 75 74 73 75 77 74 69 70 72 72 73 73 75 75 77 78
58 57 57 58 58 58 65 78 79 81 75 79 78 79 83 86 84 89 94 87 84 78 80 81 76 78 78 77 77 76 73 72 75 76 76 70 69 71 72 71 71 73 75 77 77
57 57 57 57 58 63 73 79 82 83 74 78 81 81 86 87 84 86 91 86 83 79 77 75 77 78 77 76 76 73 72 71 72 72 73 71 70 70 72 73 72 73 75 76 76
56 56 57 57 65 72 77 80 80 81 72 75 80 86 86 87 83 89 91 88 82 77 76 76 78 76 77 74 76 71 75 73 71 70 66 68 64 68 70 73 73 74 74 78 79
56 56 56 56 72 77 81 79 79 79 55 77 81 90 86 85 85 85 90 88 79 78 77 73 76 76 76 74 76 73 73 70 68 67 67 66 65 67 69 71 74 77 77 79 80
56 56 56 62 67 79 79 80 80 69 54 71 79 79 81 82 83 85 86 87 84 78 78 76 80 79 78 74 75 74 72 68 67 68 63 61 62 66 69 71 74 78 80 80 82
55 55 57 70 79 78 78 79 68 60 71 69 72 78 78 77 79 80 78 76 75 69 69 75 75 79 80 76 78 76 70 63 60 60 58 62 63 66 72 74 76 78 81 84 82
54 55 58 71 74 76 79 74 57 64 67 75 74 74 73 76 76 75 74 72 74 72 69 68 65 76 79 76 73 69 69 62 50 53 58 63 60 69 73 75 77 78 79 79 79
53 67 71 76 74 74 77 62 63 65 70 70 73 70 70 74 75 74 72 72 74 75 70 67 67 76 76 78 76 68 67 67 58 55 58 62 65 72 72 74 76 78 79 77 77
67 70 74 74 74 76 71 57 65 69 72 72 65 70 67 71 72 72 71 74 74 74 75 71 65 72 74 77 74 72 70 63 64 52 50 60 58 65 70 73 75 75 76 76 77
65 71 77 74 76 73 66 65 68 74 74 71 68 68 69 69 70 68 70 73 74 73 75 71 69 68 72 70 69 70 68 62 63 60 54 52 60 73 72 74 73 76 75 77 76
62 68 76 76 69 62 66 66 61 73 76 73 73 71 70 69 68 67 68 69 71 74 72 69 67 65 67 71 72 71 67 65 62 55 57 56 59 72 71 72 71 72 77 77 75
61 63 75 76 64 64 65 69 71 72 72 72 71 73 72 69 66 69 69 72 70 72 70 70 63 59 63 69 71 68 66 62 60 59 56 54 61 72 73 72 72 73 77 74 74
62 65 70 67 65 66 65 66 68 72 71 72 72 74 71 68 69 68 68 71 71 68 61 67 61 64 62 64 67 63 65 64 62 58 60 60 63 70 72 71 73 72 72 74 75
59 58 59 64 66 66 67 67 65 66 72 72 72 72 71 67 68 67 69 71 72 66 67 69 63 64 64 66 66 66 65 64 62 64 58 63 60 68 70 69 70 71 72 73 72
60 61 61 61 60 65 58 64 65 67 69 69 69 71 71 69 71 69 70 69 70 70 66 65 60 64 62 64 65 63 65 64 64 64 62 63 64 70 72 73 72 72 73 74 73
58 59 61 53 60 64 64 65 66 67 72 73 71 70 69 71 73 72 69 67 68 69 65 64 62 61 58 61 62 58 64 65 65 67 65 61 67 70 71 71 72 73 73 73 73
MSLP
1018.70 1018.40 1018.32 1018.18 1018.08 1018.18 1017.79 1017.53 1017.22 1017.01 1017.09 1016.76 1016.46 1016.12 1016.00 1015.63 1014.80 1014.27 1013.03 1011.70 1011.57 1011.65 1011.80 1011.68 1011.43 1011.45 1011.32 1011.40 1011.87 1012.03 1011.62 1011.48 1011.49 1011.85 1011.67 1012.77 1013.12 1013.87 1014.08 1014.26 1014.79 1014.89 1014.94 1014.44 1015.33
1018.53 1018.30 1018.17 1018.00 1018.12 1018.09 1017.67 1017.44 1017.14 1017.00 1017.00 1016.68 1016.37 1016.10 1015.94 1015.60 1014.79 1013.25 1011.54 1011.51 1011.43 1011.51 1011.46 1011.36 1011.33 1011.34 1011.30 1011.49 1011.79 1011.59 1011.55 1011.18 1011.18 1011.21 1011.41 1012.25 1012.69 1013.25 1013.71 1014.05 1014.45 1014.57 1014.86 1014.96 1015.57
1018.25 1018.23 1018.00 1017.93 1018.02 1017.94 1017.50 1017.30 1017.09 1016.92 1016.84 1016.67 1016.32 1015.97 1015.86 1015.48 1014.30 1011.98 1011.29 1011.39 1011.36 1011.45 1011.35 1011.46 1011.50 1011.37 1011.26 1011.54 1011.64 1011.67 1011.11 1011.23 1010.94 1011.18 1011.42 1011.96 1012.57 1013.11 1013.10 1013.41 1013.38 1013.58 1014.24 1014.76 1015.36
1018.14 1017.98 1017.91 1017.79 1017.80 1017.73 1017.25 1017.11 1017.04 1016.85 1016.78 1016.65 1016.25 1015.84 1015.61 1015.23 1013.49 1011.47 1011.09 1011.19 1011.64 1011.65 1011.37 1011.50 1011.49 1011.24 1011.05 1011.14 1011.56 1011.47 1011.02 1011.09 1010.78 1011.31 1011.63 1011.85 1012.21 1012.58 1012.50 1012.38 1012.76 1013.47 1014.08 1014.80 1015.12
1017.82 1017.78 1017.74 1017.64 1017.53 1017.36 1017.02 1016.87 1016.96 1016.77 1016.71 1016.59 1016.16 1015.82 1015.33 1014.34 1012.26 1011.33 1011.30 1011.53 1011.67 1011.61 1011.41 1011.44 1011.30 1011.08 1010.75 1011.13 1011.47 1011.44 1011.11 1010.98 1011.07 1011.46 1011.88 1012.17 1011.94 1012.31 1012.22 1012.45 1012.94 1013.35 1014.28 1014.78 1015.29
1017.60 1017.59 1017.61 1017.41 1017.25 1016.93 1016.78 1016.66 1016.84 1016.62 1016.58 1016.42 1016.04 1015.88 1015.28 1013.18 1011.14 1011.22 1011.32 1011.52 1011.38 1011.32 1011.37 1011.38 1011.01 1010.83 1010.90 1011.14 1011.21 1011.09 1011.15 1010.95 1011.11 1011.30 1011.71 1011.91 1012.56 1012.90 1011.85 1012.70 1013.17 1013.68 1014.24 1014.98 1015.54
1017.47 1017.40 1017.39 1017.03 1016.93 1016.58 1016.49 1016.46 1016.63 1016.40 1016.40 1016.18 1015.95 1015.65 1014.71 1012.00 1011.06 1011.32 1011.34 1011.17 1011.17 1011.11 1011.11 1011.20 1011.00 1010.86 1010.96 1010.88 1011.01 1010.79 1010.61 1010.91 1011.34 1011.50 1011.90 1012.06 1012.64 1012.09 1012.09 1012.71 1013.19 1013.58 1014.42 1015.40 1016.02
1017.26 1017.31 1016.97 1016.74 1016.54 1016.29 1016.21 1016.34 1016.41 1016.22 1016.24 1015.96 1015.75 1015.44 1013.21 1011.12 1011.16 1011.20 1011.21 1011.12 1011.19 1011.20 1011.20 1011.16 1011.16 1010.95 1010.75 1010.92 1010.87 1010.61 1010.80 1010.64 1011.46 1011.68 1012.31 1012.17 1011.34 1011.41 1012.67 1012.85 1013.08 1013.82 1014.82 1015.63 1016.31
1017.08 1016.98 1016.60 1016.45 1016.19 1016.15 1016.02 1016.04 1016.07 1015.96 1015.96 1015.74 1015.54 1014.84 1011.98 1011.05 1010.84 1010.42 1010.51 1010.52 1010.82 1011.07 1011.23 1011.26 1011.18 1011.01 1010.66 1010.33 1010.51 1010.77 1010.70 1011.00 1011.40 1011.98 1012.04 1012.34 1011.78 1012.49 1012.88 1013.20 1013.63 1014.45 1015.08 1015.70 1016.58
1016.82 1016.53 1016.26 1016.05 1016.03 1015.90 1015.72 1015.80 1015.75 1015.89 1015.63 1015.31 1015.00 1014.37 1011.62 1010.91 1010.40 1010.08 1010.19 1010.35 1010.38 1010.83 1010.99 1010.99 1010.96 1010.63 1010.66 1010.60 1010.45 1010.72 1010.85 1011.25 1011.45 1012.17 1012.23 1012.52 1012.75 1013.05 1013.66 1013.75 1014.39 1015.04 1015.44 1015.84 1016.56
1016.55 1016.24 1015.95 1015.90 1015.76 1015.64 1015.42 1015.26 1015.75 1015.58 1014.61 1013.72 1013.40 1012.60 1011.45 1010.53 1010.35 1009.85 1009.80 1010.02 1010.07 1010.29 1010.56 1010.91 1010.48 1010.75 1011.06 1011.25 1011.12 1011.26 1011.25 1011.51 1011.94 1012.49 1012.78 1013.35 1013.56 1013.82 1014.24 1014.48 1014.88 1015.31 1015.78 1016.00 1016.53
1016.42 1015.97 1015.83 1015.69 1015.61 1015.82 1015.61 1014.73 1014.10 1014.02 1013.41 1012.74 1012.54 1012.08 1011.30 1010.84 1010.32 1009.69 1009.55 1009.82 1010.02 1010.36 1010.70 1010.81 1010.82 1011.27 1011.39 1011.48 1011.35 1011.44 1011.64 1011.90 1012.33 1012.69 1012.80 1013.69 1013.86 1014.26 1014.49 1014.76 1015.20 1015.36 1015.66 1015.92 1016.41
1016.14 1015.82 1015.73 1015.68 1015.70 1015.70 1014.98 1014.04 1013.55 1013.40 1013.14 1012.14 1011.69 1011.15 1010.62 1010.63 1010.16 1009.66 1009.48 1009.73 1009.96 1010.28 1010.74 1010.99 1011.41 1011.59 1011.52 1011.67 1011.59 1011.97 1012.05 1012.30 1012.63 1013.14 1013.55 1013.78 1013.83 1014.29 1014.58 1014.75 1014.99 1015.31 1015.50 1015.84 1016.17
1016.00 1015.68 1015.69 1015.63 1015.85 1015.07 1014.25 1013.60 1013.68 1013.50 1012.84 1011.91 1010.97 1010.23 1010.24 1010.04 1009.86 1009.71 1009.64 1009.79 1010.24 1010.63 1011.12 1011.42 1011.66 1011.58 1011.61 1011.87 1012.12 1012.17 1012.58 1012.80 1013.03 1013.30 1013.64 1014.44 1013.69 1014.26 1014.68 1014.47 1014.67 1014.88 1015.10 1015.26 1015.47
1015.80 1015.60 1015.52 1015.70 1015.09 1014.54 1013.72 1013.59 1013.60 1013.50 1012.56 1011.86 1010.60 1010.13 1010.12 1010.08 1009.96 1009.80 1009.79 1009.78 1010.36 1010.92 1011.43 1011.82 1011.66 1011.66 1011.70 1012.24 1012.45 1012.97 1013.16 1013.46 1013.68 1013.76 1014.05 1014.46 1014.26 1014.29 1014.65 1014.24 1014.28 1014.43 1014.68 1014.87 1014.86
1015.54 1015.37 1015.35 1015.53 1015.06 1013.77 1013.66 1013.44 1013.39 1013.12 1012.42 1011.58 1010.69 1010.15 1010.10 1010.10 1009.98 1009.97 1010.01 1010.21 1010.96 1011.25 1011.39 1011.65 1011.84 1011.82 1012.07 1012.68 1012.75 1013.23 1013.47 1013.91 1014.17 1014.18 1014.13 1015.04 1014.89 1014.02 1014.18 1014.22 1014.26 1014.28 1014.30 1014.32 1014.47
1015.06 1014.93 1015.13 1014.61 1014.32 1013.81 1013.66 1013.35 1013.34 1012.88 1012.75 1011.99 1011.18 1010.65 1010.28 1010.24 1010.21 1010.21 1010.51 1010.88 1011.17 1011.54 1011.71 1011.89 1012.03 1012.10 1012.26 1012.35 1012.76 1013.07 1013.50 1013.65 1013.94 1014.18 1014.60 1015.31 1014.88 1014.22 1014.21 1014.33 1014.23 1014.00 1013.90 1013.85 1014.73
1015.10 1014.86 1014.79 1014.35 1014.19 1013.99 1013.60 1013.40 1013.31 1013.33 1012.77 1012.17 1011.57 1011.09 1010.69 1010.60 1010.67 1010.74 1011.04 1011.42 1011.73 1011.89 1012.19 1012.08 1012.41 1012.30 1012.42 1012.62 1012.97 1013.81 1014.21 1014.51 1014.85 1015.20 1015.07 1015.20 1014.65 1014.29 1014.37 1014.35 1014.31 1014.22 1013.97 1014.27 1014.74
1015.02 1014.77 1014.56 1013.97 1013.76 1013.99 1013.65 1013.72 1013.79 1013.58 1013.25 1012.55 1011.75 1011.28 1011.12 1011.08 1011.08 1011.20 1011.52 1011.71 1011.78 1011.96 1012.17 1012.52 1012.67 1012.79 1012.89 1012.96 1013.52 1014.15 1014.82 1015.70 1015.85 1016.69 1015.91 1015.30 1014.89 1014.27 1014.31 1014.12 1014.09 1013.82 1013.81 1014.36 1014.90
1015.03 1014.72 1014.33 1013.93 1013.80 1013.58 1013.64 1014.26 1014.23 1013.88 1013.31 1012.83 1012.22 1011.81 1011.44 1011.43 1011.52 1011.70 1011.93 1012.08 1012.10 1012.40 1012.56 1012.82 1013.10 1013.34 1013.44 1013.44 1014.12 1014.26 1015.39 1015.86 1016.08 1016.15 1015.82 1015.30 1014.85 1013.88 1013.80 1013.56 1013.53 1013.48 1013.89 1014.63 1014.97
1015.24 1014.91 1014.11 1013.78 1013.56 1013.51 1014.09 1014.38 1014.19 1013.75 1013.42 1012.95 1012.54 1012.15 1011.93 1011.82 1011.99 1012.28 1012.42 1012.69 1012.72 1012.93 1012.99 1013.32 1013.46 1013.87 1013.82 1014.01 1014.36 1015.00 1015.30 1016.31 1016.77 1017.05 1016.41 1015.48 1014.33 1013.81 1013.70 1013.72 1013.73 1013.63 1014.21 1014.45 1014.93
1015.87 1015.23 1014.22 1013.80 1014.12 1014.98 1014.60 1014.45 1014.27 1013.75 1013.31 1013.03 1012.75 1012.45 1012.21 1012.26 1012.37 1012.68 1012.86 1013.30 1013.40 1013.30 1013.47 1014.04 1014.20 1014.19 1014.43 1014.79 1014.99 1015.00 1015.62 1016.18 1016.41 1017.14 1017.06 1016.42 1014.68 1014.26 1014.26 1014.14 1014.15 1013.91 1014.10 1014.47 1015.27
1017.03 1016.08 1014.52 1014.12 1014.66 1015.06 1015.02 1014.56 1014.24 1013.84 1013.51 1013.16 1012.85 1012.65 1012.54 1012.63 1012.94 1013.07 1013.29 1013.64 1013.80 1013.91 1014.03 1014.14 1014.91 1014.90 1014.89 1015.15 1015.17 1015.26 1016.03 1016.61 1016.99 1017.14 1016.73 1016.07 1014.48 1014.40 1014.28 1014.17 1014.21 1014.13 1014.19 1014.89 1015.31
1017.71 1016.78 1015.61 1015.18 1015.40 1014.89 1014.91 1014.75 1014.28 1014.02 1013.75 1013.48 1013.14 1012.82 1012.78 1012.98 1013.07 1013.25 1013.56 1013.87 1014.10 1014.48 1014.74 1014.42 1015.22 1014.92 1014.78 1014.87 1015.26 1015.60 1016.05 1016.59 1016.74 1016.70 1016.27 1015.63 1014.79 1014.39 1014.24 1014.30 1014.50 1014.82 1015.14 1015.26 1015.42
1018.43 1018.21 1017.73 1016.39 1015.88 1015.29 1014.94 1014.96 1014.66 1014.27 1013.90 1013.56 1013.22 1012.97 1012.94 1013.17 1013.29 1013.46 1013.79 1014.12 1014.41 1014.77 1015.03 1014.90 1015.50 1015.72 1015.65 1015.58 1015.69 1015.72 1015.94 1016.30 1016.36 1016.27 1016.23 1015.50 1015.36 1014.79 1014.95 1015.03 1015.25 1015.36 1015.33 1015.35 1015.63
1019.31 1018.86 1018.17 1017.27 1016.61 1015.81 1015.57 1015.30 1014.91 1014.54 1014.18 1013.62 1013.41 1013.29 1013.30 1013.33 1013.40 1013.48 1013.82 1014.32 1014.50 1014.98 1015.34 1015.74 1016.22 1016.11 1016.17 1016.18 1016.13 1015.93 1015.97 1016.10 1016.18 1016.13 1016.11 1015.80 1015.32 1015.44 1015.33 1015.26 1015.31 1015.37 1015.45 1015.51 1015.65
1020.22 1019.78 1018.81 1017.93 1016.99 1016.23 1015.79 1015.54 1015.20 1014.96 1014.24 1013.94 1013.80 1013.78 1013.81 1013.83 1013.86 1014.19 1014.54 1014.78 1014.94 1015.18 1015.67 1015.98 1016.36 1016.57 1016.56 1016.63 1016.47 1016.39 1015.97 1015.97 1015.99 1015.96 1016.00 1015.64 1015.54 1015.64 1015.41 1015.48 1015.63 1015.66 1015.78 1015.86 1016.05
Wind_Speed
8 7 6 7 8 9 9 9 9 10 9 10 11 12 12 13 15 2 7 6 5 8 2 1 2 3 2 3 2 1 1 2 3 7 2 10 14 4 3 7 6 7 4 7 12
8 7 7 7 7 9 8 10 9 9 10 10 12 12 12 12 5 5 5 7 6 6 3 4 3 3 3 2 3 3 3 4 3 5 4 12 15 11 7 7 11 9 5 9 14
7 8 7 7 8 9 8 9 9 9 10 10 11 12 11 9 5 1 2 10 9 3 3 3 4 2 4 2 3 2 4 2 5 7 7 16 13 9 8 8 15 15 14 16 15
8 8 8 7 8 10 8 9 9 10 10 10 11 12 14 2 2 2 5 9 4 5 4 4 3 4 3 2 3 4 6 7 3 6 9 18 12 12 15 4 11 11 16 17 15
8 8 9 8 8 9 9 9 9 9 10 10 10 11 4 3 6 1 6 10 7 3 3 3 3 4 1 0 2 4 2 3 4 9 3 11 17 10 19 10 2 12 17 18 13
8 8 9 9 9 8 9 8 9 10 9 9 8 9 2 2 2 4 9 7 6 4 4 5 4 1 3 2 4 2 2 1 2 7 8 16 8 8 14 10 7 14 18 15 13
8 8 9 8 9 8 9 9 9 10 9 9 6 2 1 5 3 5 8 4 5 5 4 4 3 2 5 2 1 2 1 5 8 4 5 11 5 17 9 11 12 15 15 12 10
7 9 8 8 9 9 9 9 10 10 10 8 2 2 7 2 2 3 6 3 4 5 2 1 3 1 2 2 2 3 3 2 8 3 3 7 13 15 6 13 16 14 12 11 7
6 8 7 8 8 8 9 9 11 9 6 2 2 2 4 2 1 1 5 2 4 3 3 3 2 1 1 3 2 5 5 2 3 4 6 8 6 5 4 12 11 11 11 11 8
6 6 6 6 7 7 9 6 2 4 3 4 2 3 3 4 4 2 3 2 3 7 5 1 2 2 3 1 1 3 4 5 6 6 6 3 3 10 4 7 7 8 9 11 10
8 6 5 4 5 6 5 1 3 3 2 4 0 3 5 7 3 3 3 4 2 6 4 4 5 6 3 1 3 5 5 5 3 5 4 3 4 9 5 0 2 6 7 10 9
9 7 4 5 4 3 2 2 1 2 4 4 5 6 6 3 2 1 1 2 4 4 1 2 4 2 5 6 5 5 3 2 1 5 2 2 5 8 6 2 2 4 7 9 8
10 7 5 3 1 1 2 2 1 0 1 3 4 4 2 6 2 2 0 1 3 4 4 1 3 4 5 6 6 3 2 1 4 4 7 1 2 4 4 3 2 3 6 7 9
11 8 5 2 2 2 3 4 2 3 2 2 1 1 2 1 2 1 0 2 3 2 3 2 3 7 7 4 1 1 2 3 2 2 2 5 1 1 6 4 3 1 4 6 9
11 8 2 3 3 3 2 3 5 3 3 1 0 2 1 2 0 3 1 2 3 3 3 2 5 5 6 2 1 4 6 4 3 4 3 6 4 3 3 3 3 2 4 6 10
12 6 6 3 1 3 3 4 2 1 1 3 2 2 3 1 1 2 1 6 3 4 5 3 1 2 3 2 2 6 2 4 3 0 1 5 4 2 4 3 3 4 6 9 9
15 3 6 1 1 3 1 1 2 2 2 4 3 3 2 2 1 1 2 3 2 4 4 2 3 1 1 3 4 3 3 3 1 3 3 3 4 3 5 4 6 6 8 10 3
15 9 3 3 3 5 1 2 3 0 3 3 2 1 4 3 2 2 3 2 2 2 4 3 4 1 2 1 2 4 4 4 4 4 6 2 2 3 3 4 6 8 11 6 4
5 1 1 2 3 3 3 3 1 2 3 6 4 3 1 2 1 2 1 3 3 6 3 4 3 0 4 3 2 4 2 3 5 1 4 3 3 7 4 8 8 11 11 5 6
2 2 2 7 2 1 4 2 1 2 3 2 4 1 4 4 4 2 3 2 1 1 1 5 4 2 3 1 12 1 8 1 2 4 6 2 4 6 6 12 13 14 9 5 7
3 2 3 5 1 5 3 2 2 4 3 1 2 2 2 2 3 3 1 1 2 3 3 4 1 3 3 3 1 4 3 5 2 3 4 6 6 3 9 8 11 11 5 7 5
2 2 4 3 4 1 4 4 1 2 2 2 1 2 1 1 3 3 5 1 3 3 5 2 4 3 3 1 2 2 3 2 0 1 0 3 7 2 6 9 10 10 7 3 2
2 2 2 1 4 2 1 1 1 1 2 3 2 1 2 3 3 1 1 2 4 1 5 7 2 4 3 4 3 2 3 4 5 1 4 4 5 1 7 7 4 6 6 3 3
1 1 2 4 2 5 4 2 1 1 3 2 3 1 1 2 3 3 1 4 2 2 5 5 4 2 3 2 3 4 2 2 2 2 3 8 12 13 10 7 3 3 3 4 5
4 2 2 2 2 3 3 2 2 2 2 1 1 1 2 2 1 2 2 1 2 1 3 2 4 1 2 3 2 2 2 5 4 3 5 8 6 10 9 7 6 3 2 4 4
2 1 1 2 2 3 1 2 4 2 2 0 2 1 3 3 2 3 4 2 1 3 3 2 4 2 3 1 1 2 3 3 3 2 7 7 8 5 5 3 3 4 5 6 6
1 1 3 2 2 2 4 4 3 1 2 2 3 2 2 1 1 4 6 6 3 2 3 3 5 3 2 1 2 4 3 2 3 4 3 6 4 8 4 5 6 8 6 8 8
Wind_Direction
297 312 315 329 335 313 322 320 326 339 336 330 325 326 326 326 309 264 249 225 189 176 186 151 81 60 62 96 83 151 179 214 201 187 197 152 183 179 112 131 172 194 219 215 152
297 306 311 326 314 304 313 315 321 333 324 326 322 323 322 330 298 277 245 168 151 182 135 139 139 104 145 140 125 214 218 228 220 205 185 168 189 172 185 148 196 209 214 179 163
294 297 305 304 301 297 307 309 317 323 318 319 320 318 322 322 286 292 349 197 212 210 101 85 98 105 169 200 168 148 249 208 239 228 171 165 186 184 194 201 204 208 195 187 184
284 290 290 292 291 288 303 303 312 313 311 315 316 320 321 268 105 2 308 188 138 155 107 98 114 148 153 208 140 247 260 229 276 169 174 172 161 206 206 201 198 207 195 186 193
283 284 283 277 278 286 294 300 304 304 306 311 314 332 325 313 257 44 92 117 132 137 128 148 170 178 108 215 155 217 293 257 293 137 177 169 187 194 222 215 253 188 180 198 202
282 275 272 270 274 285 288 297 297 297 301 301 316 320 307 312 117 165 131 147 163 158 168 175 219 151 122 198 220 212 241 99 29 138 149 179 181 205 231 218 166 174 187 197 198
283 274 270 273 276 282 289 292 296 297 298 296 315 305 250 242 128 154 175 189 179 181 187 209 229 184 153 176 322 309 149 134 35 139 133 158 189 225 231 192 196 190 191 196 195
291 279 275 276 280 287 290 299 299 298 296 287 227 208 260 240 174 228 178 215 193 222 253 252 209 124 231 118 88 61 56 106 39 133 104 227 235 242 202 184 208 193 189 195 179
308 286 282 282 287 297 296 296 288 295 262 203 156 261 287 91 265 64 176 162 138 195 210 125 152 82 142 49 98 43 91 83 90 33 146 214 260 37 302 213 217 195 194 200 182
327 312 295 293 291 288 290 272 332 296 195 182 236 243 244 322 297 292 186 189 160 135 129 218 83 88 75 19 84 98 98 81 71 29 53 111 307 338 9 225 212 198 201 209 203
344 328 323 284 265 284 318 187 231 180 194 221 286 269 290 299 267 218 175 158 127 68 47 19 74 38 37 53 104 119 92 73 81 27 105 53 359 348 340 93 193 200 213 228 221
349 344 316 264 265 319 277 201 175 70 314 226 255 272 261 259 304 308 173 108 73 68 294 57 94 20 124 139 108 88 77 46 168 23 121 165 52 14 10 329 279 236 231 238 233
344 341 305 276 196 196 228 221 143 157 310 296 212 228 223 186 155 310 41 122 62 56 38 151 75 143 141 126 102 71 96 230 313 68 75 290 134 14 14 353 276 237 265 252 245
336 338 317 235 175 179 233 150 310 221 74 328 268 80 151 204 9 245 13 96 68 91 129 48 355 158 130 88 345 32 343 288 312 240 352 335 250 29 351 17 17 12 247 265 264
333 331 313 240 124 208 63 328 134 219 132 335 270 51 67 205 74 38 43 52 110 106 220 55 105 111 82 35 261 53 59 55 55 108 178 28 271 79 337 162 158 202 240 245 251
336 326 159 164 231 268 313 130 225 52 94 15 315 178 137 19 88 101 92 65 87 86 63 91 13 34 82 97 65 125 103 69 88 153 45 1 302 133 188 206 195 229 245 247 253
338 263 170 346 77 346 238 39 101 88 308 13 14 346 173 149 144 82 79 56 145 132 108 69 33 73 150 98 84 64 23 359 59 26 0 3 265 359 243 261 249 248 240 245 297
344 125 230 246 306 353 129 66 87 29 341 339 350 264 187 158 80 82 88 126 113 103 120 137 161 284 37 6 101 56 26 27 355 333 339 309 344 39 273 271 258 262 258 280 274
316 177 164 325 308 177 99 73 146 173 322 330 310 152 119 111 110 119 134 185 219 188 125 148 179 39 33 100 315 131 75 62 109 112 269 357 238 250 245 249 248 247 243 252 270
50 8 19 331 315 90 81 153 208 234 308 7 25 6 169 143 153 185 188 174 210 179 281 173 134 38 129 137 55 308 127 222 62 314 323 290 277 301 266 242 234 242 242 250 255
52 78 342 344 275 49 128 172 248 252 278 306 330 333 92 126 107 151 220 66 1 123 117 136 124 141 206 28 66 148 144 66 90 338 305 303 305 253 280 302 286 268 245 245 258
37 97 4 326 63 15 142 177 218 319 306 292 272 259 53 77 96 164 216 255 354 218 147 85 111 129 87 89 272 70 99 115 24 187 85 319 281 18 302 297 283 279 233 227 262
46 306 357 288 134 133 196 130 249 335 319 326 307 356 9 86 111 108 114 27 353 199 160 177 56 112 133 160 133 97 101 96 94 89 214 286 287 348 308 300 279 241 230 197 254
7 91 8 60 40 138 140 123 304 318 261 284 287 185 124 61 27 132 94 16 11 80 58 93 99 173 212 102 106 156 134 133 209 234 305 261 299 313 328 302 318 339 342 286 277
14 73 0 118 101 121 102 125 113 310 227 274 236 226 141 132 87 111 138 158 80 136 59 60 103 112 90 89 156 161 175 179 236 280 261 322 283 298 350 338 340 322 258 258 279
30 341 105 68 334 125 39 163 187 245 250 40 222 142 187 165 200 185 158 200 121 61 67 12 124 139 145 102 9 248 263 255 241 243 259 276 285 6 327 310 310 284 287 298 281
34 242 288 2 70 161 159 162 173 209 222 267 295 176 186 324 69 57 81 69 72 114 110 72 138 157 172 4 359 272 228 210 278 243 261 272 344 324 330 18 14 349 322 308 332